Regional Weather Roundup
Issued by NWS

Home | Current Version | Previous Version | Text Only | Print | Product List | Glossary Off
Versions: 1 2 3 4 5 6 7 8 9 10 11 12 13 14 15 16 17 18 19 20 21 22 23 24 25 26 27 28 29 30 31 32 33 34 35 36 37 38 39 40 41 42 43 44 45 46 47 48 49 50

000
ASUS43 KLOT 270400
RWRIL

ILLINOIS REGIONAL WEATHER ROUNDUP
NATIONAL WEATHER SERVICE CHICAGO/ROMEOVILLE IL
1100 PM CDT TUE AUG 26 2014

NOTE: "FAIR" INDICATES FEW OR NO CLOUDS BELOW 12,000 FEET WITH NO
SIGNIFICANT WEATHER AND/OR OBSTRUCTIONS TO VISIBILITY.

* THESE STATIONS ARE NOT UNDER NWS QUALITY CONTROL. THEY ALSO MAY NOT
  REPORT WEATHER SUCH AS PRECIPITATION OR FOG.

ILZ001-002-007-009-015-016-024-270500-
NORTHWEST ILLINOIS

CITY           SKY/WX    TMP DP  RH WIND       PRES   REMARKS
MOLINE         CLEAR     73  64  73 NE5       30.10S
STERLING*      PTCLDY    70  64  83 CALM      30.11S
$$

ILZ003-004-008-010-011-017-018-270500-
NORTH CENTRAL ILLINOIS

CITY           SKY/WX    TMP DP  RH WIND       PRES   REMARKS
ROCKFORD       PTCLDY    69  64  84 CALM      30.12F
FREEPORT*      CLEAR     63  61  93 CALM      30.14F
ROCHELLE*      PTCLDY    70  64  81 NE3       30.12S
$$

ILZ005-006-012>014-019>023-270500-
NORTHEAST ILLINOIS

CITY           SKY/WX    TMP DP  RH WIND       PRES   REMARKS
CHICAGO-OHARE  MOCLDY    72  64  76 N6        30.11S
CHICAGO-MIDWAY MOCLDY    73  68  84 NE6       30.11R
AURORA         MOCLDY    71  64  78 N5        30.12R
WAUKEGAN       PTCLDY    64  62  93 CALM      30.11S
DUPAGE AIRPORT CLOUDY    71  65  81 N7        30.11S
WHEELING       CLEAR     70  66  87 CALM      30.12S
NORTHERLY ISL    N/A     70  66  87 N2          N/A
$$

LMZ740>746-270500-
SOUTHERN LAKE MICHIGAN

STATION/POSITION SKY/WX   TEMP    WIND        PRES    VSBY  WAVE
                          AIR SEA DIR/SP/G                  HT/PER
                          (F)     (DEG/KT/KT) (MB)    (MI)  (FT/S)
SOUTHERN BUOY              69 69   40/  2/  2 1019.2R         1
WAUKEGAN HARBOR            69        CALM       N/A
HARRISON CRIB              70      70/  3/  5   N/A
BURNHAM HARBOR             70     360/  3/  6   N/A
CALUMET HARBOR             71      30/  5/  6 1018.1F
MICHIGAN CITY              69      40/  5/  7   N/A
MICHIGAN CITY 6N           71 73   70/  4/  6   N/A           2/ 4
ST. JOSEPH                 70 73   50/  6/  8   N/A           1/ 3
$$

ILZ025>027-034>036-040-047-049-050-058-095>099-270500-
WEST-CENTRAL ILLINOIS

CITY           SKY/WX    TMP DP  RH WIND       PRES   REMARKS
QUINCY         CLEAR     74  70  87 NE7       30.09S
MACOMB*        CLEAR     71  69  93 N3        30.12S
$$

ILZ028>032-037-038-041>044-048-051>054-059>061-270500-
CENTRAL ILLINOIS

CITY           SKY/WX    TMP DP  RH WIND       PRES   REMARKS
DECATUR        CLOUDY    72  66  81 SW10      30.09R
PEORIA         PTCLDY    80  72  76 CALM      30.08F HX  84
SPRINGFIELD    CLOUDY    75  68  78 S8        30.09S
TAYLORVILLE    NOT AVBL
$$

ILZ033-039-045-046-055>057-062-063-270500-
EAST-CENTRAL ILLINOIS

CITY           SKY/WX    TMP DP  RH WIND       PRES   REMARKS
CHAMPAIGN      CLOUDY    71  67  87 N3        30.09F
MATTOON        CLOUDY    74  67  78 CALM      30.09F
$$

ILZ079-100>102-270500-
SOUTHWEST ILLINOIS

CITY           SKY/WX    TMP DP  RH WIND       PRES   REMARKS
BELLEVILLE     PTCLDY    79  78  98 CALM      30.07R HX  83
$$

ILZ064>066-069>071-074>076-080>082-084>086-088>090-092>094-270500-
SOUTH-CENTRAL ILLINOIS

CITY           SKY/WX    TMP DP  RH WIND       PRES   REMARKS
CARBONDALE     PTCLDY    78  74  87 CALM      30.08R HX  81
MT. VERNON     CLEAR     73  70  88 CALM      30.09R
SALEM*         CLEAR     77  75  92 CALM      30.09S FOG
$$

ILZ067-068-072-073-078-083-087-091-270500-
SOUTHEAST ILLINOIS

CITY           SKY/WX    TMP DP  RH WIND       PRES   REMARKS
LAWRENCEVILLE  PTCLDY    74  73  97 CALM      30.07S
HARRISBURG*    CLEAR     75  75  99 CALM      30.09S FOG
ROBINSON*      MOCLDY    72  71  96 CALM      30.09S
$$

ABBREVIATIONS USED IN REMARKS
   TC - TEMPERATURE IN CELSIUS
  WCI - WIND CHILL INDEX
   HX - HEAT INDEX
  VSB - VISIBILITY
$$



USA.gov is the U.S. government's official web portal to all federal, state and local government web resources and services.